User: anonymous   Login
Location: Columbia
(38.9520°N, 92.3340°W)
Time: 11:26:10
(UTC-05:00)
Language:

Cosmos 2100 Rocket - Orbit

View from above orbital plane
View from above orbital plane
View from above satellite
View from above satellite

Ground track
Ground track

The orbit data is extracted from the following two-line orbital elements,

1 20805U 90083B   15142.85771369  .00000094  00000-0  81223-4 0  9997
2 20805 082.9377 262.4206 0030216 348.7408 125.4503 13.75772848239401
Epoch (UTC): 22 May 2015 20:35:06
Eccentricity: 0.0030216
inclination: 82.9377°
perigee height: 956 km
apogee height: 1001 km
right ascension of ascending node: 262.4206°
argument of perigee: 348.7408°
revolutions per day: 13.75772848
mean anomaly at epoch: 125.4503°
orbit number at epoch: 23940

The dashed part of the orbit path shows where the satellite is in the earth's shadow,  

DLR